Regional Weather Roundup
Issued by NWS

Home | Current Version | Previous Version | Text Only | Print | Product List | Glossary On
Versions: 1 2 3 4 5 6 7 8 9 10 11 12 13 14 15 16 17 18 19 20 21 22 23 24 25 26 27 28 29 30 31 32 33 34 35 36 37 38 39 40 41 42 43 44 45 46 47 48 49 50
000
ASHW40 PHFO 302030
RWRHI

WEATHER ROUNDUP FOR HAWAII
NATIONAL WEATHER SERVICE HONOLULU HI
1000 AM HST SUN AUG 30 2015

THIS IS AN AUTOMATED REPORT THAT HAS NOT BEEN QUALITY CONTROLLED.

NOTE..."FAIR" INDICATES FEW OR NO CLOUDS BELOW 12,000 FEET WITH NO
SIGNIFICANT WEATHER AND/OR OBSTRUCTIONS TO VISIBILITY.

* - THESE SITES REPORT LIMITED FIELDS

HIZ001>004-302100-
KAUAI-NIIHAU-

CITY           SKY/WX    TMP DP  RH WIND       PRES   REMARKS
LIHUE APT      MOSUNNY   84  77  79 NE13      29.95R HX  94
PORT ALLEN*    NOT AVBL
POIPU*           N/A     84 N/A N/A NE8G16      N/A
PRINCEVILLE*     N/A     82 N/A N/A MISG        N/A
KOKOLE POINT*  NOT AVBL
MOLOAA DAIRY*    N/A     84  75  74 SE8G14      N/A  HX  92
WAIMEA HTS*    NOT AVBL
PUU OPAE*      NOT AVBL
PUU LUA*       NOT AVBL
MAKAHA RIDGE*    N/A     79  73  83 W2          N/A
$$

HIZ005>011-302100-
OAHU-

CITY           SKY/WX    TMP DP  RH WIND       PRES   REMARKS
HONOLULU       MOSUNNY   86  72  62 NE12G21   29.91R HX  92
KALAELOA       MOSUNNY   87  70  56 E8        29.92S HX  92
KANEOHE MCB    SUNNY     84  74  71 NE12      29.90S HX  91
WHEELER FIELD  FAIR      82  71  69 E8        29.93S
BELLOWS*         N/A    N/A N/A N/A NE17        N/A
KAHUKU*          N/A    N/A N/A N/A NE8G15      N/A
WHEELER*       NOT AVBL
WAIANAE HARBOR NOT AVBL
DILLINGHAM*      N/A     70  54  56 MISG        N/A
KAHUKU TRN*      N/A     73  64  73 E9G20       N/A
KAWAILOA*        N/A     81  72  74 E6G17       N/A
KII*             N/A     84  75  74 E15         N/A  HX  92
MAKUA RANGE*     N/A     88  70  55 E5G13       N/A  HX  92
OAHU FOREST NW NOT AVBL
SCHOFIELD BRK*   N/A     70  57  64 MISG        N/A
SCHOFIELD S*   NOT AVBL
WAIANAE VLY*   NOT AVBL
KUAOKALA*      NOT AVBL
HONOULIUULI*   NOT AVBL
MOKUOLOE IS*     N/A    N/A N/A N/A MISG        N/A
PALEHUA*       NOT AVBL
WAIAWA PHB*    NOT AVBL
$$

HIZ012>013-302100-
MOLOKAI-

CITY           SKY/WX    TMP DP  RH WIND       PRES   REMARKS
MOLOKAI AIRPT  PTSUNNY   82  74  76 NE13G22   29.93R
KALAUPAPA      NOT AVBL
MAKAPULAPAI*   NOT AVBL
MOLOKAI 1*     NOT AVBL
PUU ALII*        N/A     66  66 100 CALM        N/A
$$

HIZ016-302100-
KAHOOLAWE-

CITY           SKY/WX    TMP DP  RH WIND       PRES   REMARKS
KAHOOLAWE*     NOT AVBL
HAKIOAWA*        N/A     81  76  86 MISG      30.34R
HONOKANAIA*      N/A     85  73  66 N17G28    29.82S HX  91
KANELOA*         N/A     81  73  78 VRB24G31  29.93F
KEALIALALO*      N/A     82  73  74 NE22G37   29.91R
LUA MAKIKA*    NOT AVBL
$$

HIZ014>015-302100-
LANAI-

CITY           SKY/WX    TMP DP  RH WIND       PRES   REMARKS
LANAI CITY     FAIR      80  73  79 NE25G31   29.95S
LANAI 1*       NOT AVBL
$$

HIZ017>028-302100-
MAUI-

CITY           SKY/WX    TMP DP  RH WIND       PRES   REMARKS
KAHULUI        RAIN      82  77  84 NE13      29.92S HX  90
KAPALUA-W MAUI MOSUNNY   82  75  78 NE20G29   29.91
HANA AIRPORT   CLOUDY    82  79  89 NE3       29.95S HX  93
HANA*            N/A     82 N/A N/A N5          N/A
HALEAKALA SUMM   N/A     50  50 100 NE18        N/A
MAALAEA BAY*   NOT AVBL
HALEAKALA*     NOT AVBL
KAUPO GAP*     NOT AVBL
KULA 1*          N/A     67  53  61 SE3         N/A
$$

HIZ023>026-302100-
BIG ISLAND OF HAWAII COAST AND LOWER SLOPES-

CITY           SKY/WX    TMP DP  RH WIND       PRES   REMARKS
KAILUA KONA    MOSUNNY   90  70  51 E8G16     29.85S HX  95
HILO           CLOUDY    85  75  72 N6        29.90S HX  93
HONOKAA*       NOT AVBL
KAWAIHAE MWT*    N/A     82 N/A N/A NW7         N/A
KAWAIHAE*        N/A     82 N/A N/A NW5         N/A
SOUTH POINT*     N/A     82 N/A N/A E2G10       N/A
UPOLU AIRPORT*   N/A    N/A N/A N/A NE12        N/A
KAMUELA*       NOT AVBL
HAKALAU*         N/A     66  58  75 E2G14       N/A
KALOKO-HONOKO*   N/A     88  72  58 S7        29.87R HX  94
PALI 2*          N/A     79  68  69 S8          N/A
KEALAKOMO*     NOT AVBL
KAUPULEHU*     NOT AVBL
KAPAPALA*        N/A     82  72  71 S3          N/A
LOWER KAHUKU*    N/A     79 N/A N/A S2G9        N/A
PUHE CS*         N/A     81  73  78 W3G10       N/A
PUHO CS*         N/A     86  71  60 SW3         N/A  HX  91
PTA KEAMUKU*     N/A     77  66  69 CALM        N/A
WAIKOLOA*      NOT AVBL
$$

HIZ027>028-302100-
BIG ISLAND OF HAWAII INTERIOR AND SUMMMITS-

CITY           SKY/WX    TMP DP  RH WIND       PRES   REMARKS
BRADSHAW FIELD CLOUDY    73  49  43 W3        30.27S
MK VISITOR CEN   N/A     57  43  58 E12         N/A
MAUNA KEA*       N/A     41  39  93 SE2         N/A
MAUNA LOA*       N/A     52  43  71 MISG        N/A
MAUNA LOA 1*   NOT AVBL
PTA KIPUKA*      N/A     73  57  56 E9G18       N/A
PTA RANGE 17*    N/A     73  52  46 SE12G22     N/A
PTA WEST*        N/A     73  55  53 N5G10       N/A
NENE CABIN*      N/A     66  54  63 SE6G13      N/A
AHUMOA*        NOT AVBL
PTA PORTABLE*  NOT AVBL
PUU MALI*        N/A     68  54  60 E12G26      N/A
$$

HIC003-302100-
NORTHWEST ISLANDS-

CITY           SKY/WX    TMP DP  RH WIND       PRES   REMARKS
MIDWAY ISLAND  SUNNY     84  79  84 SW5       29.91R HX  96
MIDWAY NOS*    NOT AVBL
FRENCH FRIGATE NOT AVBL
$$

PHZ110>124-180-302100-
BUOY REPORTS

STATION/POSITION TIME  TEMP    WIND        PRES    WAVE   SWELL
                       AIR SEA DIR/SP/G            HT/PER HT/DIR
                 (UTC) (F)     (DEG/KT/KT) (MB)    (FT/S) (FT/D)
BUOY 51001       1953   81 83  100/ 14/ 17 1014.1
BUOY 51101       2000   82 82  120/ 12/ 16 1013.5R   7/ 8   7/ 30
BUOY 51100       NOT AVBL
BUOY 51002       2000   83 83   70/ 12/ 14 1011.7R   7/14   7/300
BUOY 51003       2000   81 85  310/  2/  4 1012.7R   5/15   5/280
BUOY 51004       1903   82 83  350/ 14/ 16 1010.0R   9/12   8/ 80
BARBERS PT BUOY  NOT AVBL
WAIMEA BAY BUOY  2000      81                N/A     5/ 8   2/310
KAILUA BAY BUOY  2000      83                N/A     6/ 8   2/ 50
LANAI BUOY       NOT AVBL
BARBERS PT 2     2000      83                N/A     4/13   3/190
PAUWELA MAUI     2000      81                N/A     6/ 8   3/320
HILO             NOT AVBL
KANEOHE BAY BUOY 2000      82                N/A     5/ 8   2/ 40
HANALEI KAUAI    2000      83                N/A     5/ 8   3/300
KAHULUI HARBOR   NOT AVBL
HONOLULU HARBOR  NOT AVBL
KILO NALU        NOT AVBL
HILO HARBOR      NOT AVBL
MOKUOLOE         NOT AVBL
NAWILIWILI       NOT AVBL
WHOTS BUOY       NOT AVBL
BUOY 51028       NOT AVBL
$$

......................KEY........................................
  SKY/WX - SKY CONDITIONS/PRESENT WEATHER
  TMP    - TEMPERATURE IN FAHRENHEIT
  DWPT   - DEWPOINT IN FAHRENHEIT
  RH     - RELATIVE HUMIDITY IN PERCENT
  WIND   - DIRECTION AND SPEED /MPH FOR ISLANDS...KTS FOR BUOYS/
  PRES   - MEAN SEA LEVEL PRESSURE IN INCHES OF HG
  VSB    - VISIBILITY IN MILES
  HX     - HEAT INDEX
  WCI    - WIND CHILL INDEX
  VRB    - VARIABLE WIND DIRECTION
  N/A    - NOT AVAILABLE


USA.gov is the U.S. government's official web portal to all federal, state and local government web resources and services.